Вернуться в каталог

STARLINK-37260

АктивенСвязьVLEO
NORAD 68510·PAYLOAD·🇺🇸 United States

Запущен Mar 30, 2026 с Cape Canaveral Space Force Station

Loading…

Ближайшие Пролёты (ближайшие 24 часа)

TLE

СвежийSource: CelesTrak SupGP

Эпоха: Sep 14, 2026, 23:09 UTC

1 68510C 26068C   26257.96506944  .00030628  00000+0  90504-3 0  2573
2 68510  53.1585 323.6557 0001262  87.7046 284.8197 15.34370999    13

Отслеживайте STARLINK-37260 в реальном времени с AllMySat

Download on the App Store